Weather History for St. Francis, KS

Change the Weather History Date:

Monday, May 26, 2014

  Actual Average Record
Temperature  
Mean Temperature 66 °F -  
Max Temperature 83 °F 77 °F 91 °F (2013)
Min Temperature 50 °F 49 °F 50 °F (2014)
Cooling Degree Days 2    
Growing Degree Days 16 (Base 50)    
Moisture  
Dew Point 46 °F    
Average Humidity 54    
Maximum Humidity 86    
Minimum Humidity 19    
Precipitation  
Precipitation 0.00 in - - ()
Sea Level Pressure  
Sea Level Pressure 29.98 in    
Wind  
Wind Speed 7 mph (South)    
Max Wind Speed 15 mph    
Max Gust Speed 25 mph    
Visibility 10 miles    
Events      
Averages and records for this station are not official NWS values.
T = Trace of Precipitation, MM = Missing Value Source: NWS Daily Summary

Daily Weather History Graph

Daily Weather History Graph

Search for Another Location

Airport:

Trip Planner

Search our weather history database for the weather conditions in past years. The results will help you decide how hot, cold, wet, or windy it might be!

Date:

Astronomy

May. 26, 2014 Rise Set
Actual Time 6:24 AM CDT 9:04 PM CDT
Civil Twilight 5:52 AM CDT 9:36 PM CDT
Nautical Twilight 5:13 AM CDT 10:15 PM CDT
Astronomical Twilight 4:28 AM CDT 11:00 PM CDT
Moon 5:07 AM CDT (5/26) 7:09 PM CDT (5/26)
Length of Visible Light 15h 43m
Length of Day
14h 40m
Waning Crescent, 5% of the Moon is Illuminated
May 26
Waning Crescent
May 28
New
Jun 5
First Quarter
Jun 12
Full
Jun 19
Last Quarter

Hourly Weather History & Observations

Time (CDT) Temp. Dew Point Humidity Pressure Visibility Wind Dir Wind Speed Gust Speed Precip Events Conditions
12:15 AM 63.0 °F 53.1 °F 70% 29.97 in 10.0 mi South 10.4 mph - N/A   Clear
12:35 AM 62.2 °F 53.1 °F 72% 29.97 in 10.0 mi South 10.4 mph - N/A   Clear
12:55 AM 61.9 °F 52.9 °F 72% 29.97 in 10.0 mi South 9.2 mph - N/A   Clear
1:15 AM 60.8 °F 52.9 °F 75% 29.97 in 10.0 mi SSW 9.2 mph - N/A   Clear
1:35 AM 59.2 °F 52.7 °F 79% 29.98 in 10.0 mi SW 6.9 mph - N/A   Clear
1:55 AM 57.6 °F 52.2 °F 82% 29.98 in 10.0 mi SW 8.1 mph - N/A   Clear
2:15 AM 56.8 °F 52.0 °F 84% 29.97 in 10.0 mi WSW 5.8 mph - N/A   Clear
2:35 AM 56.7 °F 51.1 °F 82% 29.97 in 10.0 mi SW 5.8 mph - N/A   Clear
2:55 AM 55.4 °F 50.5 °F 84% 29.97 in 10.0 mi SW 6.9 mph - N/A   Clear
3:15 AM 54.5 °F 50.0 °F 85% 29.97 in 10.0 mi South 4.6 mph - N/A   Clear
3:35 AM 54.9 °F 49.3 °F 81% 29.97 in 10.0 mi SW 5.8 mph - N/A   Clear
3:55 AM 53.8 °F 48.7 °F 83% 29.97 in 10.0 mi SW 3.5 mph - N/A   Clear
4:15 AM 53.4 °F 48.6 °F 84% 29.96 in 10.0 mi WSW 4.6 mph - N/A   Clear
4:35 AM 54.1 °F 48.4 °F 81% 29.97 in 10.0 mi Calm Calm - N/A   Clear
4:55 AM 53.1 °F 47.1 °F 80% 29.97 in 10.0 mi South 5.8 mph - N/A   Clear
5:15 AM 53.1 °F 47.5 °F 81% 29.97 in 10.0 mi SSW 4.6 mph - N/A   Clear
5:35 AM 53.2 °F 47.3 °F 80% 29.97 in 10.0 mi South 4.6 mph - N/A   Clear
5:55 AM 52.5 °F 48.2 °F 85% 29.98 in 10.0 mi South 9.2 mph - N/A   Clear
6:15 AM 52.7 °F 47.3 °F 82% 29.98 in 10.0 mi South 5.8 mph - N/A   Clear
6:35 AM 51.8 °F 46.6 °F 82% 29.99 in 10.0 mi WSW 4.6 mph - N/A   Clear
6:55 AM 50.9 °F 46.8 °F 86% 29.99 in 10.0 mi West 4.6 mph - N/A   Clear
7:15 AM 53.4 °F 49.1 °F 85% 29.99 in 10.0 mi WSW 4.6 mph - N/A   Clear
7:35 AM 54.7 °F 49.3 °F 82% 29.99 in 10.0 mi SW 4.6 mph - N/A   Clear
7:55 AM 55.4 °F 49.3 °F 80% 30.00 in 10.0 mi SSW 3.5 mph - N/A   Clear
8:15 AM 57.0 °F 50.2 °F 78% 30.00 in 10.0 mi SSW 3.5 mph - N/A   Clear
8:35 AM 59.7 °F 50.0 °F 70% 30.00 in 10.0 mi Calm Calm - N/A   Clear
8:55 AM 61.9 °F 48.7 °F 62% 30.00 in 10.0 mi WSW 3.5 mph - N/A   Clear
9:15 AM 64.0 °F 47.8 °F 56% 30.00 in 10.0 mi WSW 3.5 mph - N/A   Clear
9:35 AM 66.0 °F 47.8 °F 52% 30.00 in 10.0 mi SW 4.6 mph - N/A   Clear
9:55 AM 68.0 °F 47.7 °F 48% 30.00 in 10.0 mi Calm Calm - N/A   Clear
10:15 AM 69.4 °F 46.2 °F 43% 30.00 in 10.0 mi South 3.5 mph - N/A   Clear
10:35 AM 70.3 °F 45.3 °F 41% 30.00 in 10.0 mi Calm Calm - N/A   Clear
10:55 AM 72.7 °F 44.8 °F 37% 30.00 in 10.0 mi Calm Calm - N/A   Clear
11:15 AM 73.6 °F 43.3 °F 34% 30.00 in 10.0 mi Calm Calm - N/A   Clear
11:35 AM 75.9 °F 43.2 °F 31% 30.00 in 10.0 mi East 5.8 mph - N/A   Clear
11:55 AM 77.4 °F 41.4 °F 28% 30.00 in 10.0 mi East 5.8 mph - N/A   Clear
12:15 PM 77.4 °F 41.4 °F 28% 30.01 in 10.0 mi SE 5.8 mph - N/A   Clear
12:35 PM 78.6 °F 40.6 °F 26% 30.00 in 10.0 mi SSE 4.6 mph - N/A   Clear
12:55 PM 77.7 °F 39.6 °F 25% 29.99 in 10.0 mi ENE 3.5 mph - N/A   Clear
1:15 PM 79.3 °F 38.7 °F 23% 29.99 in 10.0 mi South 6.9 mph - N/A   Clear
1:35 PM 80.6 °F 38.8 °F 22% 29.98 in 10.0 mi South 8.1 mph - N/A   Clear
1:55 PM 78.3 °F 38.5 °F 24% 29.97 in 10.0 mi ESE 5.8 mph - N/A   Scattered Clouds
2:15 PM 82.0 °F 37.4 °F 20% 29.97 in 10.0 mi SE 5.8 mph 9.2 mph N/A   Scattered Clouds
2:35 PM 81.5 °F 37.6 °F 21% 29.97 in 10.0 mi East 6.9 mph 20.7 mph N/A   Scattered Clouds
2:55 PM 82.6 °F 36.5 °F 19% 29.96 in 10.0 mi ESE 9.2 mph 18.4 mph N/A   Clear
3:15 PM 81.9 °F 38.3 °F 21% 29.96 in 10.0 mi SE 13.8 mph - N/A   Clear
3:35 PM 82.6 °F 37.6 °F 20% 29.95 in 10.0 mi ESE 8.1 mph 16.1 mph N/A   Clear
3:55 PM 82.6 °F 37.4 °F 20% 29.95 in 10.0 mi ESE 11.5 mph 19.6 mph N/A   Clear
4:15 PM 82.8 °F 36.3 °F 19% 29.94 in 10.0 mi East 4.6 mph - N/A   Clear
4:35 PM 82.0 °F 36.9 °F 20% 29.93 in 10.0 mi SSW 6.9 mph - N/A   Clear
4:55 PM 81.7 °F 37.2 °F 20% 29.93 in 10.0 mi SE 6.9 mph - N/A   Scattered Clouds
5:15 PM 83.1 °F 39.2 °F 21% 29.93 in 10.0 mi East 11.5 mph - N/A   Mostly Cloudy
5:35 PM 82.0 °F 38.8 °F 21% 29.94 in 10.0 mi East 10.4 mph 16.1 mph N/A   Mostly Cloudy
5:55 PM 79.0 °F 38.8 °F 24% 29.94 in 10.0 mi East 6.9 mph - N/A   Mostly Cloudy
6:15 PM 79.5 °F 38.7 °F 23% 29.93 in 10.0 mi East 6.9 mph - N/A   Scattered Clouds
6:35 PM 80.2 °F 37.6 °F 22% 29.93 in 10.0 mi ESE 5.8 mph - N/A   Scattered Clouds
6:55 PM 76.6 °F 47.7 °F 36% 29.93 in 10.0 mi SSE 15.0 mph 25.3 mph N/A   Mostly Cloudy
7:15 PM 76.1 °F 45.9 °F 34% 29.93 in 10.0 mi SSE 15.0 mph - N/A   Scattered Clouds
7:35 PM 73.4 °F 45.5 °F 37% 29.94 in 10.0 mi South 11.5 mph - N/A   Clear
7:55 PM 72.5 °F 47.5 °F 41% 29.95 in 10.0 mi South 8.1 mph - N/A   Clear
8:15 PM 72.7 °F 47.7 °F 41% 29.97 in 10.0 mi WSW 6.9 mph - N/A   Scattered Clouds
8:35 PM 71.2 °F 50.0 °F 47% 29.98 in 10.0 mi WSW 10.4 mph - N/A   Scattered Clouds
8:55 PM 68.7 °F 50.5 °F 52% 29.98 in 10.0 mi WSW 6.9 mph - N/A   Mostly Cloudy
9:15 PM 66.0 °F 50.9 °F 58% 29.99 in 10.0 mi SSW 5.8 mph - N/A   Scattered Clouds
9:35 PM 64.2 °F 51.1 °F 62% 29.99 in 10.0 mi SW 3.5 mph - N/A   Scattered Clouds
9:55 PM 64.2 °F 51.3 °F 63% 29.99 in 10.0 mi South 5.8 mph - N/A   Mostly Cloudy
10:15 PM 62.8 °F 51.8 °F 67% 30.00 in 10.0 mi South 3.5 mph - N/A   Scattered Clouds
10:35 PM 62.2 °F 51.6 °F 68% 30.00 in 10.0 mi SSW 6.9 mph - N/A   Scattered Clouds
10:55 PM 60.3 °F 51.6 °F 73% 30.00 in 10.0 mi SSW 6.9 mph - N/A   Clear
11:15 PM 60.3 °F 51.3 °F 72% 30.00 in 10.0 mi SSW 4.6 mph - N/A   Clear
11:35 PM 59.7 °F 51.3 °F 74% 30.00 in 10.0 mi SW 6.9 mph - N/A   Clear
11:55 PM 59.9 °F 51.3 °F 73% 29.99 in 10.0 mi South 6.9 mph - N/A   Clear